| time (UTC) | temp F | wind direction | speed MPH | gust MPH | rain 1hr in | rain 24hr in | rain mn in | humidity % | barometer mb |
| 20260901224533 | 65 | 149 | 0.0 | 5.0 | 0.00 | 0.00 | 0.00 | 75 | 1010.1 |
| 20260901223024 | 65 | 149 | 0.0 | 2.0 | 0.00 | 0.00 | 0.00 | 75 | 1010.2 |
| 20260901221525 | 65 | 269 | 0.0 | 6.0 | 0.00 | 0.00 | 0.00 | 75 | 1010.2 |
| 20260901220031 | 66 | 145 | 0.0 | 4.0 | 0.00 | 0.00 | 0.00 | 75 | 1010.1 |
| 20260901214532 | 66 | 316 | 0.0 | 3.0 | 0.00 | 0.00 | 0.00 | 74 | 1010.1 |
| 20260901213032 | 67 | 55 | 0.0 | 2.0 | 0.00 | 0.00 | 0.00 | 73 | 1010.2 |
| 20260901211527 | 67 | 143 | 0.0 | 4.0 | 0.00 | 0.00 | 0.00 | 72 | 1010.2 |
| 20260901210029 | 66 | 290 | 0.0 | 4.0 | 0.00 | 0.00 | 0.00 | 74 | 1010.2 |
| 20260901204532 | 66 | 285 | 0.0 | 4.0 | 0.00 | 0.00 | 0.00 | 73 | 1010.4 |
| 20260901203037 | 67 | 51 | 0.0 | 7.0 | 0.00 | 0.00 | 0.00 | 73 | 1010.5 |
| 20260901201520 | 66 | 242 | 0.0 | 3.0 | 0.00 | 0.00 | 0.00 | 74 | 1010.5 |
| 20260901200037 | 65 | 272 | 0.0 | 7.0 | 0.00 | 0.00 | 0.00 | 75 | 1010.6 |
| 20260901194531 | 65 | 132 | 1.0 | 9.0 | 0.00 | 0.00 | 0.00 | 76 | 1010.7 |
| 20260901193034 | 65 | 150 | 0.0 | 9.0 | 0.00 | 0.00 | 0.00 | 76 | 1010.6 |
| 20260901191550 | 65 | 150 | 1.0 | 10.0 | 0.00 | 0.00 | 0.00 | 76 | 1010.6 |
| 20260901190026 | 64 | 126 | 1.0 | 8.0 | 0.00 | 0.00 | 0.00 | 77 | 1010.6 |
| 20260901184503 | 64 | 148 | 1.0 | 11.0 | 0.00 | 0.00 | 0.00 | 78 | 1010.8 |
| 20260901183003 | 62 | 252 | 0.0 | 10.0 | 0.00 | 0.00 | 0.00 | 79 | 1010.7 |
| 20260901181504 | 62 | 140 | 3.0 | 8.0 | 0.00 | 0.00 | 0.00 | 80 | 1010.7 |
| 20260901180001 | 62 | 113 | 1.0 | 9.0 | 0.00 | 0.00 | 0.00 | 81 | 1010.6 |
| 20260901174502 | 62 | 182 | 1.0 | 9.0 | 0.00 | 0.00 | 0.00 | 81 | 1010.4 |
| 20260901173004 | 61 | 146 | 0.0 | 7.0 | 0.00 | 0.00 | 0.00 | 83 | 1010.3 |
| 20260901171503 | 62 | 144 | 1.0 | 4.0 | 0.00 | 0.00 | 0.00 | 82 | 1010.4 |
| 20260901170004 | 61 | 61 | 0.0 | 3.0 | 0.00 | 0.00 | 0.00 | 85 | 1010.2 |
| 20260901164503 | 60 | 147 | 0.0 | 3.0 | 0.00 | 0.00 | 0.00 | 86 | 1010.3 |
| 20260901163006 | 59 | 217 | 0.0 | 8.0 | 0.00 | 0.00 | 0.00 | 86 | 1010.5 |
| 20260901161504 | 59 | 250 | 0.0 | 1.0 | 0.00 | 0.00 | 0.00 | 88 | 1010.6 |
| 20260901160006 | 58 | 150 | 0.0 | 7.0 | 0.00 | 0.00 | 0.00 | 89 | 1010.6 |
| 20260901154505 | 58 | 146 | 2.0 | 6.0 | 0.00 | 0.00 | 0.00 | 89 | 1010.7 |
| 20260901153001 | 57 | 159 | 0.0 | 3.0 | 0.00 | 0.00 | 0.00 | 91 | 1010.8 |
| 20260901151507 | 57 | 151 | 0.0 | 3.0 | 0.00 | 0.00 | 0.00 | 92 | 1010.6 |
| 20260901150007 | 56 | 253 | 0.0 | 5.0 | 0.00 | 0.00 | 0.00 | 93 | 1010.6 |
| 20260901144504 | 55 | 153 | 0.0 | 1.0 | 0.00 | 0.00 | 0.00 | 93 | 1010.2 |
| 20260901143006 | 54 | 157 | 0.0 | 0.0 | 0.00 | 0.00 | 0.00 | 93 | 1010.1 |
| 20260901141505 | 54 | 157 | 0.0 | 0.0 | 0.00 | 0.00 | 0.00 | 93 | 1010.1 |
| 20260901140009 | 54 | 157 | 0.0 | 0.0 | 0.00 | 0.00 | 0.00 | 93 | 1010.0 |
| 20260901134507 | 54 | 157 | 0.0 | 0.0 | 0.00 | 0.00 | 0.00 | 93 | 1009.9 |
| 20260901133009 | 54 | 157 | 0.0 | 0.0 | 0.00 | 0.00 | 0.00 | 93 | 1009.9 |
| 20260901131506 | 53 | 157 | 0.0 | 0.0 | 0.00 | 0.00 | 0.00 | 93 | 1009.7 |
| 20260901130012 | 53 | 157 | 0.0 | 2.0 | 0.00 | 0.00 | 0.00 | 93 | 1009.6 |
| 20260901124515 | 53 | 91 | 0.0 | 0.0 | 0.00 | 0.00 | 0.00 | 92 | 1009.6 |
| 20260901123009 | 52 | 91 | 0.0 | 0.0 | 0.00 | 0.00 | 0.00 | 92 | 1009.6 |
| 20260901121508 | 52 | 91 | 0.0 | 0.0 | 0.00 | 0.00 | 0.00 | 92 | 1009.4 |
| 20260901120010 | 52 | 91 | 0.0 | 0.0 | 0.00 | 0.00 | 0.00 | 92 | 1009.4 |
| 20260901114510 | 52 | 91 | 0.0 | 0.0 | 0.00 | 0.00 | 0.00 | 92 | 1009.3 |
| 20260901113010 | 52 | 91 | 0.0 | 0.0 | 0.00 | 0.00 | 0.00 | 92 | 1009.5 |
| 20260901111509 | 52 | 91 | 0.0 | 0.0 | 0.00 | 0.00 | 0.00 | 92 | 1009.5 |
| 20260901110009 | 52 | 91 | 0.0 | 0.0 | 0.00 | 0.00 | 0.00 | 91 | 1009.4 |
| 20260901104512 | 52 | 91 | 0.0 | 0.0 | 0.00 | 0.00 | 0.00 | 91 | 1009.5 |
| 20260901103010 | 53 | 91 | 0.0 | 0.0 | 0.00 | 0.00 | 0.00 | 91 | 1009.5 |
| 20260901101513 | 53 | 91 | 0.0 | 0.0 | 0.00 | 0.00 | 0.00 | 91 | 1009.5 |
| 20260901100013 | 53 | 91 | 0.0 | 0.0 | 0.00 | 0.00 | 0.00 | 91 | 1009.3 |
| 20260901094535 | 53 | 91 | 0.0 | 0.0 | 0.00 | 0.00 | 0.00 | 91 | 1009.3 |
| 20260901093033 | 53 | 91 | 0.0 | 0.0 | 0.00 | 0.00 | 0.00 | 91 | 1009.3 |
| 20260901091532 | 53 | 91 | 0.0 | 0.0 | 0.00 | 0.00 | 0.00 | 91 | 1009.4 |
| 20260901090038 | 54 | 91 | 0.0 | 0.0 | 0.00 | 0.00 | 0.00 | 91 | 1009.2 |
| 20260901084525 | 54 | 91 | 0.0 | 0.0 | 0.00 | 0.00 | 0.00 | 90 | 1009.3 |
| 20260901083030 | 54 | 91 | 0.0 | 0.0 | 0.00 | 0.00 | 0.00 | 90 | 1009.2 |
| 20260901081533 | 54 | 91 | 0.0 | 0.0 | 0.00 | 0.00 | 0.00 | 90 | 1009.2 |
| 20260901080032 | 55 | 91 | 0.0 | 0.0 | 0.00 | 0.00 | 0.00 | 90 | 1009.3 |
| 20260901074535 | 55 | 91 | 0.0 | 0.0 | 0.00 | 0.00 | 0.00 | 90 | 1009.2 |
| 20260901073029 | 55 | 91 | 0.0 | 0.0 | 0.00 | 0.00 | 0.00 | 89 | 1009.2 |
| 20260901071532 | 55 | 91 | 0.0 | 0.0 | 0.00 | 0.00 | 0.00 | 89 | 1009.2 |
| 20260901070031 | 56 | 91 | 0.0 | 0.0 | 0.00 | 0.00 | 0.00 | 89 | 1009.1 |
| 20260901064521 | 56 | 91 | 0.0 | 0.0 | 0.00 | 0.00 | 0.00 | 89 | 1009.3 |
| 20260901063024 | 56 | 91 | 0.0 | 0.0 | 0.00 | 0.00 | 0.00 | 88 | 1009.3 |
| 20260901061525 | 57 | 91 | 0.0 | 0.0 | 0.00 | 0.00 | 0.00 | 88 | 1009.4 |
| 20260901060020 | 57 | 91 | 0.0 | 0.0 | 0.00 | 0.00 | 0.00 | 88 | 1009.4 |
| 20260901054519 | 57 | 91 | 0.0 | 0.0 | 0.00 | 0.00 | 0.00 | 87 | 1009.4 |
| 20260901053020 | 57 | 91 | 0.0 | 0.0 | 0.00 | 0.00 | 0.00 | 87 | 1009.5 |
| 20260901051520 | 58 | 91 | 0.0 | 0.0 | 0.00 | 0.00 | 0.00 | 87 | 1009.4 |
| 20260901050025 | 58 | 91 | 0.0 | 0.0 | 0.00 | 0.00 | 0.00 | 86 | 1009.6 |
| 20260901044537 | 59 | 91 | 0.0 | 0.0 | 0.00 | 0.00 | 0.00 | 86 | 1009.5 |
| 20260901043016 | 59 | 91 | 0.0 | 0.0 | 0.00 | 0.00 | 0.00 | 86 | 1009.4 |
| 20260901041527 | 60 | 91 | 0.0 | 0.0 | 0.00 | 0.00 | 0.00 | 85 | 1009.6 |
| 20260901040028 | 60 | 91 | 0.0 | 0.0 | 0.00 | 0.00 | 0.00 | 84 | 1009.5 |
| 20260901034532 | 61 | 91 | 0.0 | 0.0 | 0.00 | 0.00 | 0.00 | 84 | 1009.4 |
| 20260901033047 | 62 | 91 | 0.0 | 0.0 | 0.00 | 0.00 | 0.00 | 83 | 1009.2 |
| 20260901031517 | 62 | 91 | 0.0 | 0.0 | 0.00 | 0.00 | 0.00 | 82 | 1009.1 |
| 20260901030034 | 63 | 91 | 0.0 | 0.0 | 0.00 | 0.00 | 0.00 | 80 | 1008.9 |
| 20260901024528 | 64 | 91 | 0.0 | 0.0 | 0.00 | 0.00 | 0.00 | 80 | 1008.9 |
| 20260901023024 | 66 | 91 | 0.0 | 0.0 | 0.00 | 0.00 | 0.00 | 79 | 1008.9 |
| 20260901021531 | 67 | 91 | 0.0 | 0.0 | 0.00 | 0.00 | 0.00 | 77 | 1008.8 |
| 20260901020031 | 68 | 91 | 0.0 | 0.0 | 0.00 | 0.00 | 0.00 | 74 | 1008.9 |
| 20260901014526 | 68 | 91 | 0.0 | 0.0 | 0.00 | 0.00 | 0.00 | 73 | 1008.8 |
| 20260901013041 | 69 | 91 | 0.0 | 0.0 | 0.00 | 0.00 | 0.00 | 71 | 1008.7 |
| 20260901011531 | 69 | 91 | 0.0 | 1.0 | 0.00 | 0.00 | 0.00 | 70 | 1008.9 |
| 20260901010031 | 70 | 91 | 0.0 | 1.0 | 0.00 | 0.00 | 0.00 | 68 | 1008.8 |
| 20260901004527 | 71 | 94 | 0.0 | 0.0 | 0.00 | 0.00 | 0.00 | 64 | 1008.9 |
| 20260901003038 | 72 | 94 | 0.0 | 1.0 | 0.00 | 0.00 | 0.00 | 63 | 1008.9 |
| 20260901001527 | 74 | 195 | 0.0 | 3.0 | 0.00 | 0.00 | 0.00 | 61 | 1009.1 |
| 20260901000033 | 74 | 57 | 0.0 | 3.0 | 0.00 | 0.00 | 0.00 | 59 | 1009.2 |
| 20260831234527 | 73 | 74 | 0.0 | 2.0 | 0.00 | 0.00 | 0.00 | 61 | 1009.3 |
| 20260831233028 | 73 | 98 | 0.0 | 2.0 | 0.00 | 0.00 | 0.00 | 64 | 1009.5 |
| 20260831231529 | 74 | 53 | 0.0 | 2.0 | 0.00 | 0.00 | 0.00 | 63 | 1009.6 |
| 20260831230029 | 74 | 159 | 0.0 | 3.0 | 0.00 | 0.00 | 0.00 | 59 | 1009.8 |